Location: Newark
(54.0500°N, 12.8333°E)
Time: 10:02:21
(UTC+00:00)

Vanguard 3 - All Passes

Search period start: 20 January 2020 00:00
Search period end: 30 January 2020 00:00
Orbit: 508 x 3263 km, 33.3° (Epoch: 19 January)

Date Brightness Start Highest point End Pass type
(mag) Time Alt. Az. Time Alt. Az. Time Alt. Az.
20 Jan - 15:44:37 10° SSE 15:52:25 14° SE 15:59:29 10° ESE visible
20 Jan - 17:51:28 10° SSW 18:04:57 26° SSE 18:15:12 10° ESE visible
20 Jan - 20:04:36 10° SW 20:17:26 29° S 20:26:16 10° SE visible
20 Jan - 22:20:34 10° WSW 22:28:39 19° SSW 22:34:34 10° S visible
21 Jan - 16:37:15 10° SSW 16:49:56 22° SSE 17:00:27 10° ESE visible
21 Jan - 18:48:26 10° SW 19:02:45 30° S 19:13:01 10° ESE visible
21 Jan - 21:03:16 10° WSW 21:14:49 26° SSW 21:22:49 10° SSE visible
21 Jan - 23:22:02 10° WSW 23:25:09 11° SW 23:27:54 10° SSW visible
22 Jan - 15:24:48 10° S 15:35:00 17° SE 15:44:13 10° ESE daylight
22 Jan - 17:32:59 10° SW 17:47:42 29° SSE 17:59:06 10° ESE visible
22 Jan - 19:46:28 10° WSW 20:00:26 31° S 20:10:10 10° SE visible
22 Jan - 22:02:47 10° WSW 22:11:47 20° SSW 22:18:25 10° S visible
23 Jan - 14:17:20 10° SE 14:20:19 11° SE 14:23:15 10° SE daylight
23 Jan - 16:18:35 10° SSW 16:32:32 25° SSE 16:44:21 10° ESE visible
23 Jan - 18:30:12 10° SW 18:45:33 33° S 18:56:50 10° ESE visible
23 Jan - 20:45:17 10° WSW 20:57:51 27° SSW 21:06:38 10° SSE visible
23 Jan - 23:04:31 10° WSW 23:08:15 12° SW 23:11:30 10° SSW visible
24 Jan - 15:05:42 10° S 15:17:28 20° SE 15:28:20 10° ESE daylight
24 Jan - 17:14:43 10° SW 17:30:20 31° SSE 17:42:49 10° ESE visible
24 Jan - 19:28:24 10° WSW 19:43:18 32° S 19:53:56 10° SE visible
24 Jan - 21:44:59 10° WSW 21:54:48 20° SW 22:02:05 10° S visible
25 Jan - 13:55:47 10° SSE 14:02:43 13° SE 14:09:34 10° ESE daylight
25 Jan - 16:00:14 10° SSW 16:15:01 28° SSE 16:28:00 10° ESE visible
25 Jan - 18:12:08 10° SW 18:28:15 34° S 18:40:30 10° ESE visible
25 Jan - 20:27:21 10° WSW 20:40:44 28° SSW 20:50:19 10° SSE visible
25 Jan - 22:47:08 10° WSW 22:51:13 12° SW 22:54:49 10° SSW visible
26 Jan - 14:47:07 10° S 14:59:50 22° SE 15:12:01 10° ESE daylight
26 Jan - 16:56:39 10° SW 17:12:51 34° SSE 17:26:22 10° ESE visible
26 Jan - 19:10:26 10° WSW 19:26:02 33° SSW 19:37:33 10° SE visible
26 Jan - 21:27:14 10° WSW 21:37:40 20° SW 21:45:35 10° S visible
27 Jan - 13:36:16 10° SSE 13:45:04 15° SE 13:53:57 10° ESE daylight
27 Jan - 15:42:10 10° SSW 15:57:25 30° SSE 16:11:25 10° ESE daylight
27 Jan - 17:54:13 10° WSW 18:10:49 36° S 18:24:01 10° ESE visible
27 Jan - 20:09:29 10° WSW 20:23:29 28° SSW 20:33:51 10° SSE visible
27 Jan - 22:29:54 10° WSW 22:34:04 12° SW 22:37:47 10° SSW visible
28 Jan - 14:28:56 10° SSW 14:42:10 24° SSE 14:55:24 10° ESE daylight
28 Jan - 16:38:48 10° SW 16:55:18 35° S 17:09:44 10° ESE visible
28 Jan - 18:52:35 10° WSW 19:08:39 34° SSW 19:21:01 10° SE visible
28 Jan - 21:09:32 10° WSW 21:20:25 20° SW 21:28:54 10° S visible
29 Jan - 13:17:35 10° S 13:27:22 17° SE 13:37:40 10° ESE daylight
29 Jan - 15:24:22 10° SSW 15:39:45 32° SSE 15:54:38 10° ESE daylight
29 Jan - 17:36:28 10° WSW 17:53:18 37° S 18:07:22 10° SE visible
29 Jan - 19:51:42 10° WSW 20:06:06 28° SSW 20:17:12 10° SSE visible
29 Jan - 22:12:56 10° WSW 22:16:47 11° SW 22:20:18 10° SW visible
